Showing default

LEMU-NGE, 60532

Orbit data source: Space-Track

LEMU-NGE, 60532 is a Chilean payload satellite in SSO that was launched on Fri, 16 Aug 2024 UTC via an FALCON 9 launch vehicle from the Air Force Western Test Range (AFWTR). Payloads include a variety of satellites, spacecraft, and rockets equipped with specific instruments for various scientific and technological missions. These include communications satellites like Starlink; space stations such as the ISS; scientific satellites like the Hubble; Earth observation satellites from companies like Planet Labs, Umbra, and HawkEye 360; GPS; miniature CubeSats for education and research; and military/defense satellites.

Loading next visibility...
LEMU-NGE details
Identifier
60532, 2024-149BS
Orbit
SSO
Last TLE update8 hours ago
Origin
Flag of CLLEMU (CL / CHLE)
ManufacturerNanoAvionics
MissionOperational spacecraft
Bus & MotorCUBESAT 6U, Unknown motor
Mass~10 kg wet, ~10 kg dry
Launch date (UTC)
2024-08-16 (4 months ago)
Launch vehicle
FALCON 9
Launch site
Air Force Western Test Range (AFWTR)
Object type
Payload
Rocket body
Debris
Shape & HBRUnknown
Radar Cross SectionMedium (>0.1 m² and <1 m²)

Expand to show TLE details & history

TLE from 8 hours ago
0 LEMU-NGE
1 60532U 24149BS  24356.16292147  .00006135  00000-0  59449-3 0  9997
2 60532  97.7380  69.5080 0002222  73.2366 286.9097 14.93057633 18837
Epoch: 2024-12-21T03:54Z
Definitive object data (Epoch: 2024-12-21T03:54:36.415Z)
Latitude-0.00001°
Longitude-79.36176°
Altitude591.002 km
Speed7.565 km/s
True Right ascension04h 38m 01s
True Declination0° 00' 00"
Sunlit
Object was in full shadow at TLE epoch
Visualization TLE readout
Latitude10.02968°
Longitude-80.39992°
Altitude589.964 km
Speed7.566 km/s
Apparent Right ascension02h 21m 22s
Apparent Declination-17° 50' 38"
Sunlit
Object is in full shadow
Visualization observer readout
Local Sidereal Time11:01:33
Azimuth282.231° WNW
Elevation-41.787°
Doppler factor1
Orbital elements
Apogee altitude586.972 km
Perigee altitude583.877 km
Semi-major axis6,963.561 km
Eccentricity0.0002222
Inclination97.738°
RAAN69.508°
Arg. of periapsis73.2366°
True anomaly286.88534°
Mean anomaly286.9097°
Eccentric anomaly286.89752°
Mean motion3.73505 °/min
BSTAR0.00059449
Orbital period96.38 mins
Loading maneuver chart data...
Loading historical data...
Loading historical data...
Loading historical data...
Loading historical data...
Loading historical data...
Loading historical data...
Loading historical data...

LEMU-NGE Visibility forecast

Observer location: undefined°, undefined

Span
Click to sort rows by Start time (UTC) header in descending order
Start Az.
Max El. time (UTC)
Max El. Az.
Max El.
End time (UTC)
End Az.
7 mins2024-12-21 17:20:49.948Z34.98° NE2024-12-21 17:24:49.948Z109.386° ESE26.247°2024-12-21 17:27:49.948Z157.699° S
4 mins2024-12-21 18:57:49.948Z326.158° NNW2024-12-21 18:59:49.948Z288.973° WNW19.426°2024-12-21 19:01:49.948Z253.949° W
4 mins2024-12-22 04:12:49.948Z87.875° E2024-12-22 04:13:49.948Z68.443° E18.761°2024-12-22 04:16:49.948Z21.142° NNE
5 mins2024-12-22 05:46:49.948Z211.824° SW2024-12-22 05:48:49.948Z253.615° W27.387°2024-12-22 05:51:49.948Z318.381° NNW
|